Change the Weather History Date:

Saturday, August 24, 2013

  Actual Average Record
Temperature  
Mean Temperature 80 °F 83 °F  
Max Temperature 86 °F 92 °F 103 °F (1921)
Min Temperature 73 °F 73 °F 63 °F (2009)
Degree Days  
Heating Degree Days 0 0  
Month to date heating degree days 0 0  
Since 1 June heating degree days 0 0  
Since 1 July heating degree days 0 0  
Cooling Degree Days 15 18  
Month to date cooling degree days 426 432  
Year to date cooling degree days 1865 2037  
Since 1 June cooling degree days 1442 1472  
Growing Degree Days 30 (Base 50)    
Moisture  
Dew Point 72 °F    
Average Humidity 78    
Maximum Humidity 94    
Minimum Humidity 61    
Precipitation  
Precipitation 0.00 in 0.18 in 3.04 in (2008)
Month to date precipitation 2.95 4.62  
Year to date precipitation 52.25 40.51  
Snow  
Snow 0.00 in - - ()
Month to date snowfall 0.0  
Since 1 June snowfall 0.0  
Since 1 July snowfall 0.0  
Snow Depth 0.00 in    
Sea Level Pressure  
Sea Level Pressure 30.03 in    
Wind  
Wind Speed 8 mph (ENE)    
Max Wind Speed 17 mph    
Max Gust Speed 24 mph    
Visibility 10 miles    
Events      
T = Trace of Precipitation, MM = Missing Value Source: NWS Daily Summary

Daily Weather History Graph

Daily Weather History Graph

Search for Another Location

Airport or City:

Trip Planner

Search our weather history database for the weather conditions in past years. The results will help you decide how hot, cold, wet, or windy it might be!

Date:

Astronomy

Aug. 24, 2013 Rise Set
Actual Time 6:36 AM CDT 7:36 PM CDT
Civil Twilight 6:11 AM CDT 8:01 PM CDT
Nautical Twilight 5:42 AM CDT 8:30 PM CDT
Astronomical Twilight 5:12 AM CDT 9:00 PM CDT
Moon 9:53 PM CDT (8/24) 10:15 AM CDT (8/24)
Length of Visible Light 13h 49m
Length of Day
12h 59m
Waning Gibbous, 84% of the Moon is Illuminated
Aug 24
Waning Gibbous
Aug 28
Last Quarter
Sep 5
New
Sep 12
First Quarter
Sep 19
Full

Hourly Weather History & Observations

Time (CDT) Temp. Heat Index Dew Point Humidity Pressure Visibility Wind Dir Wind Speed Gust Speed Precip Events Conditions
12:53 AM 75.0 °F - 73.0 °F 94% 30.00 in 10.0 mi ENE 3.5 mph - N/A   Clear
1:53 AM 73.9 °F - 72.0 °F 93% 29.99 in 10.0 mi Calm Calm - N/A   Clear
2:53 AM 73.9 °F - 72.0 °F 93% 29.98 in 10.0 mi NNE 3.5 mph - N/A   Clear
3:53 AM 73.0 °F - 72.0 °F 96% 29.98 in 10.0 mi Calm Calm - N/A   Clear
4:53 AM 73.0 °F - 72.0 °F 96% 29.98 in 10.0 mi NE 4.6 mph - N/A   Clear
5:53 AM 73.0 °F - 71.1 °F 93% 30.01 in 10.0 mi NE 4.6 mph - N/A   Clear
6:53 AM 73.0 °F - 71.1 °F 93% 30.03 in 10.0 mi NE 5.8 mph - N/A   Partly Cloudy
7:53 AM 75.0 °F - 72.0 °F 90% 30.03 in 10.0 mi ENE 6.9 mph - N/A   Clear
8:53 AM 79.0 °F - 73.0 °F 82% 30.04 in 10.0 mi ENE 9.2 mph - N/A   Partly Cloudy
9:53 AM 82.0 °F 86.7 °F 72.0 °F 71% 30.04 in 10.0 mi ENE 11.5 mph - N/A   Partly Cloudy
10:53 AM 82.9 °F 87.5 °F 71.1 °F 67% 30.06 in 10.0 mi ENE 12.7 mph 20.7 mph N/A   Mostly Cloudy
11:53 AM 84.9 °F 91.4 °F 73.0 °F 67% 30.05 in 10.0 mi ENE 15.0 mph 20.7 mph N/A   Mostly Cloudy
12:53 PM 84.9 °F 90.7 °F 72.0 °F 65% 30.05 in 10.0 mi East 11.5 mph 18.4 mph N/A   Mostly Cloudy
1:53 PM 86.0 °F 92.2 °F 72.0 °F 63% 30.05 in 10.0 mi East 12.7 mph 24.2 mph N/A   Mostly Cloudy
2:53 PM 82.9 °F 88.0 °F 72.0 °F 69% 30.04 in 10.0 mi East 11.5 mph - N/A   Mostly Cloudy
3:53 PM 82.9 °F 88.0 °F 72.0 °F 69% 30.04 in 10.0 mi East 9.2 mph - N/A   Scattered Clouds
4:00 PM 84.2 °F 89.6 °F 71.6 °F 66% 30.03 in 10.0 mi East 10.4 mph - N/A   Scattered Clouds
4:53 PM 82.9 °F 87.5 °F 71.1 °F 67% 30.03 in 10.0 mi ESE 9.2 mph - N/A   Mostly Cloudy
5:53 PM 82.9 °F 87.5 °F 71.1 °F 67% 30.03 in 10.0 mi ESE 12.7 mph - N/A   Scattered Clouds
6:53 PM 81.0 °F 84.9 °F 71.1 °F 72% 30.04 in 10.0 mi East 9.2 mph - N/A   Partly Cloudy
7:53 PM 78.1 °F - 71.1 °F 79% 30.03 in 10.0 mi ESE 8.1 mph - N/A   Partly Cloudy
8:53 PM 77.0 °F - 71.1 °F 82% 30.06 in 10.0 mi East 8.1 mph - N/A   Clear
9:53 PM 75.9 °F - 71.1 °F 85% 30.08 in 10.0 mi East 8.1 mph - N/A   Clear
10:53 PM 75.0 °F - 71.1 °F 87% 30.09 in 10.0 mi East 6.9 mph - N/A   Clear
11:53 PM 73.9 °F - 71.1 °F 91% 30.09 in 10.0 mi ENE 4.6 mph - N/A   Clear